SCP
0 0 0 0 0 0 0 0 0 0 0 0 0 0 0 0 0 0 0 0 0 0 0 0 0 0 0 0 0 0 0 0 0 0 0 0 0 0 0 0 0 0 0 0
0 0 0 0 0 0 0 0 0 0 0 0 0 0 0 0 0 0 0 0 0 0 0 0 0 0 0 0 0 0 0 0 0 0 0 0 0 0 0 0 0 0 0 0
0 0 0 0 0 0 0 0 0 0 0 0 0 0 0 0 0 0 0 0 0 0 0 0 0 0 0 0 0 0 0 0 0 0 0 0 0 0 0 0 0 0 0 0
0 0 0 0 0 0 0 0 0 0 0 0 0 0 0 0 0 0 0 0 0 0 0 0 0 0 0 0 0 0 0 0 0 0 0 0 0 0 0 0 0 0 0 0
0 0 0 0 0 0 0 0 0 0 0 0 0 0 0 0 0 0 0 0 0 0 0 0 0 0 0 0 0 0 0 0 0 0 0 0 0 0 0 0 0 0 0 0
0 0 0 0 0 0 0 0 0 0 0 0 0 0 0 0 0 0 0 0 0 0 0 0 0 0 0 0 0 0 0 0 0 0 0 0 0 0 0 0 0 0 0 0
0 0 0 0 0 0 0 0 0 0 0 0 0 0 0 0 0 0 0 0 0 0 0 0 0 0 0 0 0 0 0 0 0 0 0 0 0 0 0 0 0 0 0 0
0 0 0 0 0 0 0 0 0 0 0 0 0 0 0 0 0 0 0 0 0 0 0 0 0 0 0 -0 -0 -0 -0 -0 0 0 0 0 0 0 0 0 0 0 0 0
0 0 0 0 0 0 0 0 0 0 0 0 0 0 0 0 0 0 0 0 0 0 0 0 0 0 -0 -0 -0 -0 -0 -0 0 0 0 0 0 0 0 0 0 0 0 0
0 0 0 0 0 0 0 0 0 0 0 0 0 0 0 0 0 0 0 0 0 0 0 0 -0 -0 -0 -0 -0 -0 -0 -0 -0 -0 -0 0 0 0 0 0 0 0 0 0
0 0 0 0 0 0 0 0 0 0 0 0 0 0 0 0 0 0 0 0 0 0 0 0 -0 -0 -0 -0 -0 -0 -0 -0 -0 -0 -0 -0 -0 -0 -0 -0 0 0 0 0
0 0 0 0 0 0 0 0 0 0 0 0 0 0 0 0 0 0 0 0 0 0 -0 -0 -0 -0 -0 -0 -0 -0 -0 -0 -0 -0 -0 -0 -0 -0 -0 -0 -0 -0 0 0
0 0 0 0 0 0 0 0 0 0 0 0 0 0 0 0 0 0 0 0 0 0 -0 -0 0 -0 0 0 0 0 0 -0 -0 -0 -0 -0 -0 -0 -0 -0 -0 -0 -0 -0
0 0 0 0 0 0 0 0 0 0 0 0 0 0 0 0 0 0 -0 -0 -0 0 0 0 -0 -0 -0 -0 0 0 0 0 0 0 -0 0 0 0 0 0 -0 -0 -0 0
0 0 0 0 0 0 0 0 0 0 0 0 0 0 0 0 0 -0 0 0 0 0 0 0 0 0 0 -0 -0 -0 -0 -0 0 0 0 0 0 0 0 0 0 0 0 0
0 0 0 0 0 0 0 0 0 0 0 0 0 0 0 0 0 0 0 0 0 0 0 0 0 0 0 0 0 0 -0 0 0 0 0 0 0 0 0 -0 -0 -0 0 0
0 0 0 0 0 0 0 0 0 0 0 0 0 0 0 0 0 0 0 0 0 0 0 0 0 0 0 0 0 0 0 0 0 0 0 0 0 0 0 0 0 0 0 0
0 0 0 0 0 0 0 0 0 0 0 0 0 0 0 0 0 0 0 0 0 0 0 0 0 0 0 0 0 0 0 0 0 0 0 0 0 0 0 0 0 0 0 0
0 0 0 0 0 0 0 0 0 0 0 0 0 0 0 0 0 0 0 0 0 0 0 0 0 0 0 0 0 0 0 0 0 0 0 0 0 0 0 0 0 0 0 0
0 0 0 0 0 0 0 0 0 0 0 0 0 0 0 0 0 0 0 0 0 0 0 0 0 0 0 0 0 0 0 0 0 0 0 0 0 0 0 0 0 0 0 0
0 0 0 0 0 0 0 0 0 0 0 0 0 0 0 0 0 0 0 0 0 0 0 0 0 0 0 0 0 0 0 0 0 0 0 0 0 0 0 0 0 0 0 0
0 0 0 0 0 0 0 0 0 0 0 0 0 0 0 0 0 0 0 0 0 0 0 0 0 0 0 0 0 0 0 0 0 0 0 0 0 0 0 0 0 0 0 0
0 0 0 0 0 0 0 0 0 0 0 0 0 0 0 0 0 0 0 0 0 0 0 0 0 0 0 0 0 0 0 0 0 0 0 0 0 0 0 0 0 0 0 0
0 0 0 0 0 0 0 0 0 0 0 0 0 0 0 0 0 0 0 0 0 0 0 0 0 0 0 0 0 0 0 0 0 0 0 0 0 0 0 0 0 0 0 0
0 0 0 0 0 0 0 0 0 0 0 0 0 0 0 0 0 0 0 0 0 0 0 0 0 0 0 0 0 0 0 0 0 0 0 0 0 0 0 0 0 0 0 0
0 0 0 0 0 0 0 0 0 0 0 0 0 0 0 0 0 0 0 0 0 0 0 0 0 0 0 0 0 0 0 0 0 0 0 0 0 0 0 0 0 0 0 0
Wind_Speed_500mb
12 8 13 21 18 10 7 9 9 11 16 9 14 13 20 52 25 32 36 53 51 50 44 43 41 31 23 19 21 21 14 10 13 12 16 21 24 22 26 30 34 38 41 45
6 12 23 10 11 9 8 7 12 8 4 8 15 23 24 27 28 51 47 49 47 51 55 56 55 55 56 49 38 25 20 16 14 12 11 10 9 13 15 18 21 24 30 37
16 14 14 9 6 10 7 10 7 11 6 10 8 14 14 18 45 51 50 52 53 55 58 60 61 62 61 63 61 52 44 35 26 16 5 4 10 13 15 16 19 21 21 26
13 16 11 14 12 14 10 14 13 9 5 7 7 8 4 15 21 27 33 48 50 51 51 51 52 53 54 53 49 49 48 47 44 37 31 25 21 16 12 12 14 14 13 13
10 13 10 8 13 15 12 4 6 5 6 3 8 5 11 18 8 11 20 39 40 40 43 44 45 44 44 42 42 40 36 34 33 31 30 28 25 22 18 14 14 13 12 13
9 3 7 13 6 4 5 3 6 4 7 1 10 12 7 12 18 14 27 36 35 35 36 38 36 36 38 36 35 34 33 33 30 28 27 26 25 24 22 23 24 24 25 24
6 10 4 6 3 7 6 7 5 6 2 10 2 4 11 5 18 27 32 42 34 32 31 31 33 36 36 38 36 32 30 31 33 32 30 30 30 29 29 32 34 33 32 29
7 10 15 8 10 10 10 12 8 10 4 7 15 10 9 19 49 53 47 38 30 28 26 26 26 26 28 28 30 33 36 35 33 32 32 30 29 32 32 31 31 32 34 35
11 10 5 6 3 10 8 7 6 4 4 5 7 4 8 17 23 37 40 32 26 21 16 16 17 19 22 22 23 23 24 26 28 30 31 33 33 31 32 33 36 37 37 39
5 4 3 4 5 6 6 5 2 5 1 7 7 9 9 18 22 19 21 26 23 16 9 7 9 12 15 17 20 23 26 27 30 31 33 33 33 34 33 35 38 40 42 46
7 7 7 5 7 12 3 3 3 5 9 9 5 9 4 27 25 20 26 31 28 21 15 8 4 3 6 10 15 20 24 28 34 36 36 36 39 42 44 46 48 49 47 48
1 9 6 16 10 5 7 9 12 7 7 7 2 17 9 27 32 40 35 31 24 19 17 8 2 2 5 14 19 22 26 38 43 44 45 46 48 50 53 55 57 60 62 61
11 2 3 15 6 5 5 4 8 8 5 12 9 13 5 18 17 18 29 29 27 21 21 13 8 13 19 27 32 35 41 46 47 50 51 54 54 59 65 67 68 72 75 77
6 6 12 16 7 4 5 6 8 9 2 3 14 12 21 15 12 22 34 31 27 16 12 9 14 18 23 30 34 39 47 54 56 60 63 64 66 71 74 78 81 84 85 86
7 8 3 6 4 1 8 22 6 13 14 13 39 23 37 25 7 18 32 29 22 14 7 9 11 16 23 27 33 38 48 51 56 65 71 73 75 83 83 85 86 88 91 93
5 5 4 9 8 11 20 37 19 28 32 25 32 40 25 13 11 26 27 21 12 8 12 14 17 22 26 32 34 44 44 51 57 65 70 75 85 88 89 90 96 102 105 107
11 10 6 12 4 10 15 31 35 22 18 14 19 25 2 9 17 23 16 5 8 12 8 16 21 25 29 29 39 42 44 54 58 62 70 79 82 87 95 99 103 108 111 114
12 12 6 7 8 3 15 6 9 22 18 12 3 8 19 14 17 16 3 6 2 12 26 36 32 30 28 35 37 45 50 53 61 71 74 79 85 90 94 100 107 113 110 113
10 11 3 8 10 11 21 12 12 13 15 10 12 9 17 18 4 4 9 12 25 36 38 29 31 34 35 40 49 56 62 66 70 77 85 84 85 89 96 102 106 111 115 122
7 10 14 5 11 18 12 6 15 12 13 22 14 8 18 18 2 9 25 41 44 36 28 33 38 42 47 56 60 65 68 75 82 85 89 92 95 96 98 103 107 108 105 111
6 2 30 23 11 15 15 16 16 10 15 14 21 23 30 11 25 29 39 39 38 37 33 36 42 52 56 60 65 69 77 82 85 90 94 96 97 100 102 103 98 94 92 91
14 16 9 5 7 16 21 12 13 11 12 18 22 25 23 32 41 49 42 37 40 40 44 52 54 54 55 60 66 76 82 86 89 92 94 97 98 97 96 92 89 84 82 86
3 14 11 19 13 12 48 20 26 15 16 21 28 38 41 40 45 48 46 46 42 45 49 50 54 55 55 61 70 78 82 85 88 91 93 94 94 92 87 84 82 82 80 83
9 10 6 9 12 21 36 41 44 46 49 49 48 45 48 41 48 53 51 47 45 44 44 48 52 55 60 66 71 73 75 77 82 87 91 92 92 86 77 74 74 76 77 79
17 12 11 6 16 37 48 56 59 58 57 59 56 50 40 42 43 42 46 47 43 41 44 48 50 56 63 68 70 68 68 72 79 84 87 88 82 78 77 73 74 72 73 73
23 24 12 15 40 30 31 45 49 47 44 48 44 40 45 46 45 43 42 41 41 43 42 43 49 57 62 66 67 61 63 67 75 82 86 81 78 76 76 78 81 70 66 67
Wind_Direction_500mb
189 118 202 219 202 212 269 242 243 255 280 328 288 289 293 281 296 289 95 88 85 77 73 69 67 66 71 87 105 113 143 145 191 186 212 225 231 240 254 258 264 266 268 271
76 217 228 224 219 220 237 274 278 288 314 349 301 300 300 45 65 89 90 87 86 84 77 73 72 71 68 69 72 75 79 91 117 125 139 162 178 216 239 248 254 263 271 274
178 213 185 191 287 294 264 229 217 237 303 285 314 296 114 69 71 77 80 93 89 83 78 72 69 67 67 67 64 66 66 68 71 72 95 189 206 225 239 245 259 267 266 285
238 239 222 261 235 180 244 228 192 222 86 217 94 278 247 106 74 66 76 86 88 85 79 74 68 65 61 60 61 61 62 63 64 64 63 60 65 62 38 352 318 287 287 290
254 174 166 174 221 169 233 111 198 198 188 27 283 138 270 125 104 115 107 97 89 84 81 72 64 61 60 55 51 49 47 48 47 46 51 51 50 45 27 4 353 343 307 293
232 315 181 208 208 159 121 358 305 77 124 265 240 164 249 182 173 159 139 114 99 86 78 72 62 56 52 49 48 44 38 38 34 29 27 25 21 16 5 2 357 355 343 324
303 212 257 192 102 37 88 66 322 353 26 221 244 268 245 322 137 130 118 107 98 87 72 62 55 46 40 34 36 40 39 37 32 30 29 28 22 13 7 1 357 351 347 342
185 309 155 185 188 189 177 167 159 224 220 250 345 271 351 66 92 101 105 103 95 84 73 62 48 44 41 39 37 32 30 32 31 28 27 25 23 18 12 7 2 356 352 346
188 233 126 92 148 151 193 167 179 125 87 48 220 117 72 95 96 106 114 112 106 96 78 62 48 37 37 33 35 37 34 26 19 13 10 6 4 2 359 354 348 345 343 338
192 267 294 185 114 36 147 167 62 11 238 258 274 243 189 169 139 132 137 135 131 132 122 87 46 46 42 39 34 27 24 23 16 7 4 355 351 347 343 338 333 331 331 329
125 114 262 116 203 177 78 183 155 147 148 189 261 254 240 161 150 153 162 174 178 181 180 172 160 100 46 30 22 15 11 8 7 360 355 349 347 343 339 333 328 330 326 322
77 132 204 226 278 90 191 222 175 173 233 248 242 266 93 136 161 169 184 185 182 182 185 192 259 319 339 350 344 346 350 356 353 349 344 342 337 333 329 329 329 326 324 323
175 215 6 338 353 26 110 122 105 101 123 213 208 256 178 130 143 181 190 190 189 177 189 212 241 290 307 323 327 331 333 333 337 337 334 334 333 330 329 326 322 322 322 318
103 155 172 218 160 103 280 237 135 131 217 203 239 276 228 215 235 202 200 196 176 189 194 231 260 280 293 302 303 318 321 323 325 324 326 326 326 326 324 321 318 316 314 312
99 183 245 263 110 76 236 268 209 196 221 210 267 256 267 292 285 205 194 183 178 174 204 251 268 283 299 306 308 312 309 308 313 314 317 319 319 320 318 315 314 312 310 309
19 224 101 307 282 222 258 263 256 242 248 242 251 266 281 291 124 124 138 150 179 260 274 257 266 285 291 298 296 309 304 304 304 305 307 310 312 312 311 311 310 308 307 304
132 129 78 270 327 47 303 242 231 231 214 207 224 246 127 228 154 154 154 215 283 292 269 284 295 296 299 292 296 311 304 300 300 298 299 300 305 307 307 306 304 302 301 300
142 120 118 218 35 284 249 288 202 216 245 188 200 229 231 235 152 146 170 267 198 302 308 307 306 301 292 297 300 303 301 298 298 302 305 308 307 304 303 301 299 298 295 292
181 163 161 163 199 304 294 240 195 170 267 192 194 232 222 191 174 237 195 303 300 297 299 292 290 293 297 303 307 307 308 310 311 312 312 310 305 300 298 296 296 295 294 292
161 209 196 112 182 214 243 251 140 104 279 221 206 221 187 170 187 244 287 314 308 297 275 280 287 294 302 308 312 314 315 316 316 315 313 311 310 309 307 306 304 302 298 294
111 40 218 218 224 278 242 204 160 105 269 164 196 213 186 186 222 283 301 301 296 281 268 279 292 301 308 312 313 316 317 319 319 317 315 315 314 313 311 310 309 307 305 301
159 164 196 112 217 265 182 127 159 210 180 211 203 194 218 265 280 295 293 280 279 268 277 286 296 306 311 312 315 317 318 319 318 316 316 317 317 316 315 316 315 314 311 308
207 192 180 182 205 220 181 214 232 216 211 223 226 269 271 268 283 294 286 276 265 274 284 293 302 306 310 314 317 318 319 319 317 318 319 320 321 324 323 319 317 315 313 307
277 156 195 95 227 222 222 237 251 252 262 272 269 273 280 277 287 288 279 270 272 280 291 299 303 307 312 317 318 319 319 318 318 320 323 328 327 322 321 321 319 314 311 304
209 150 191 259 266 263 265 260 264 270 274 278 283 279 272 280 278 272 270 275 278 288 296 299 302 308 314 316 317 320 319 321 323 326 331 327 324 326 325 324 322 315 310 302
204 225 217 230 239 222 245 264 270 271 273 276 265 257 271 281 281 277 274 277 283 288 289 294 303 310 315 316 316 319 321 325 329 332 330 326 329 330 328 326 325 326 311 303
Wind_Speed_850mb
12 8 13 21 18 10 7 9 9 11 16 9 14 13 20 52 25 32 36 53 51 50 44 43 41 31 23 19 21 21 14 10 13 12 16 21 24 22 26 30 34 38 41 45
6 12 23 10 11 9 8 7 12 8 4 8 15 23 24 27 28 51 47 49 47 51 55 56 55 55 56 49 38 25 20 16 14 12 11 10 9 13 15 18 21 24 30 37
16 14 14 9 6 10 7 10 7 11 6 10 8 14 14 18 45 51 50 52 53 55 58 60 61 62 61 63 61 52 44 35 26 16 5 4 10 13 15 16 19 21 21 26
13 16 11 14 12 14 10 14 13 9 5 7 7 8 4 15 21 27 33 48 50 51 51 51 52 53 54 53 49 49 48 47 44 37 31 25 21 16 12 12 14 14 13 13
10 13 10 8 13 15 12 4 6 5 6 3 8 5 11 18 8 11 20 39 40 40 43 44 45 44 44 42 42 40 36 34 33 31 30 28 25 22 18 14 14 13 12 13
9 3 7 13 6 4 5 3 6 4 7 1 10 12 7 12 18 14 27 36 35 35 36 38 36 36 38 36 35 34 33 33 30 28 27 26 25 24 22 23 24 24 25 24
6 10 4 6 3 7 6 7 5 6 2 10 2 4 11 5 18 27 32 42 34 32 31 31 33 36 36 38 36 32 30 31 33 32 30 30 30 29 29 32 34 33 32 29
7 10 15 8 10 10 10 12 8 10 4 7 15 10 9 19 49 53 47 38 30 28 26 26 26 26 28 28 30 33 36 35 33 32 32 30 29 32 32 31 31 32 34 35
11 10 5 6 3 10 8 7 6 4 4 5 7 4 8 17 23 37 40 32 26 21 16 16 17 19 22 22 23 23 24 26 28 30 31 33 33 31 32 33 36 37 37 39
5 4 3 4 5 6 6 5 2 5 1 7 7 9 9 18 22 19 21 26 23 16 9 7 9 12 15 17 20 23 26 27 30 31 33 33 33 34 33 35 38 40 42 46
7 7 7 5 7 12 3 3 3 5 9 9 5 9 4 27 25 20 26 31 28 21 15 8 4 3 6 10 15 20 24 28 34 36 36 36 39 42 44 46 48 49 47 48
1 9 6 16 10 5 7 9 12 7 7 7 2 17 9 27 32 40 35 31 24 19 17 8 2 2 5 14 19 22 26 38 43 44 45 46 48 50 53 55 57 60 62 61
11 2 3 15 6 5 5 4 8 8 5 12 9 13 5 18 17 18 29 29 27 21 21 13 8 13 19 27 32 35 41 46 47 50 51 54 54 59 65 67 68 72 75 77
6 6 12 16 7 4 5 6 8 9 2 3 14 12 21 15 12 22 34 31 27 16 12 9 14 18 23 30 34 39 47 54 56 60 63 64 66 71 74 78 81 84 85 86
7 8 3 6 4 1 8 22 6 13 14 13 39 23 37 25 7 18 32 29 22 14 7 9 11 16 23 27 33 38 48 51 56 65 71 73 75 83 83 85 86 88 91 93
5 5 4 9 8 11 20 37 19 28 32 25 32 40 25 13 11 26 27 21 12 8 12 14 17 22 26 32 34 44 44 51 57 65 70 75 85 88 89 90 96 102 105 107
11 10 6 12 4 10 15 31 35 22 18 14 19 25 2 9 17 23 16 5 8 12 8 16 21 25 29 29 39 42 44 54 58 62 70 79 82 87 95 99 103 108 111 114
12 12 6 7 8 3 15 6 9 22 18 12 3 8 19 14 17 16 3 6 2 12 26 36 32 30 28 35 37 45 50 53 61 71 74 79 85 90 94 100 107 113 110 113
10 11 3 8 10 11 21 12 12 13 15 10 12 9 17 18 4 4 9 12 25 36 38 29 31 34 35 40 49 56 62 66 70 77 85 84 85 89 96 102 106 111 115 122
7 10 14 5 11 18 12 6 15 12 13 22 14 8 18 18 2 9 25 41 44 36 28 33 38 42 47 56 60 65 68 75 82 85 89 92 95 96 98 103 107 108 105 111
6 2 30 23 11 15 15 16 16 10 15 14 21 23 30 11 25 29 39 39 38 37 33 36 42 52 56 60 65 69 77 82 85 90 94 96 97 100 102 103 98 94 92 91
14 16 9 5 7 16 21 12 13 11 12 18 22 25 23 32 41 49 42 37 40 40 44 52 54 54 55 60 66 76 82 86 89 92 94 97 98 97 96 92 89 84 82 86
3 14 11 19 13 12 48 20 26 15 16 21 28 38 41 40 45 48 46 46 42 45 49 50 54 55 55 61 70 78 82 85 88 91 93 94 94 92 87 84 82 82 80 83
9 10 6 9 12 21 36 41 44 46 49 49 48 45 48 41 48 53 51 47 45 44 44 48 52 55 60 66 71 73 75 77 82 87 91 92 92 86 77 74 74 76 77 79
17 12 11 6 16 37 48 56 59 58 57 59 56 50 40 42 43 42 46 47 43 41 44 48 50 56 63 68 70 68 68 72 79 84 87 88 82 78 77 73 74 72 73 73
23 24 12 15 40 30 31 45 49 47 44 48 44 40 45 46 45 43 42 41 41 43 42 43 49 57 62 66 67 61 63 67 75 82 86 81 78 76 76 78 81 70 66 67
Wind_Direction_850mb
189 118 202 219 202 212 269 242 243 255 280 328 288 289 293 281 296 289 95 88 85 77 73 69 67 66 71 87 105 113 143 145 191 186 212 225 231 240 254 258 264 266 268 271
76 217 228 224 219 220 237 274 278 288 314 349 301 300 300 45 65 89 90 87 86 84 77 73 72 71 68 69 72 75 79 91 117 125 139 162 178 216 239 248 254 263 271 274
178 213 185 191 287 294 264 229 217 237 303 285 314 296 114 69 71 77 80 93 89 83 78 72 69 67 67 67 64 66 66 68 71 72 95 189 206 225 239 245 259 267 266 285
238 239 222 261 235 180 244 228 192 222 86 217 94 278 247 106 74 66 76 86 88 85 79 74 68 65 61 60 61 61 62 63 64 64 63 60 65 62 38 352 318 287 287 290
254 174 166 174 221 169 233 111 198 198 188 27 283 138 270 125 104 115 107 97 89 84 81 72 64 61 60 55 51 49 47 48 47 46 51 51 50 45 27 4 353 343 307 293
232 315 181 208 208 159 121 358 305 77 124 265 240 164 249 182 173 159 139 114 99 86 78 72 62 56 52 49 48 44 38 38 34 29 27 25 21 16 5 2 357 355 343 324
303 212 257 192 102 37 88 66 322 353 26 221 244 268 245 322 137 130 118 107 98 87 72 62 55 46 40 34 36 40 39 37 32 30 29 28 22 13 7 1 357 351 347 342
185 309 155 185 188 189 177 167 159 224 220 250 345 271 351 66 92 101 105 103 95 84 73 62 48 44 41 39 37 32 30 32 31 28 27 25 23 18 12 7 2 356 352 346
188 233 126 92 148 151 193 167 179 125 87 48 220 117 72 95 96 106 114 112 106 96 78 62 48 37 37 33 35 37 34 26 19 13 10 6 4 2 359 354 348 345 343 338
192 267 294 185 114 36 147 167 62 11 238 258 274 243 189 169 139 132 137 135 131 132 122 87 46 46 42 39 34 27 24 23 16 7 4 355 351 347 343 338 333 331 331 329
125 114 262 116 203 177 78 183 155 147 148 189 261 254 240 161 150 153 162 174 178 181 180 172 160 100 46 30 22 15 11 8 7 360 355 349 347 343 339 333 328 330 326 322
77 132 204 226 278 90 191 222 175 173 233 248 242 266 93 136 161 169 184 185 182 182 185 192 259 319 339 350 344 346 350 356 353 349 344 342 337 333 329 329 329 326 324 323
175 215 6 338 353 26 110 122 105 101 123 213 208 256 178 130 143 181 190 190 189 177 189 212 241 290 307 323 327 331 333 333 337 337 334 334 333 330 329 326 322 322 322 318
103 155 172 218 160 103 280 237 135 131 217 203 239 276 228 215 235 202 200 196 176 189 194 231 260 280 293 302 303 318 321 323 325 324 326 326 326 326 324 321 318 316 314 312
99 183 245 263 110 76 236 268 209 196 221 210 267 256 267 292 285 205 194 183 178 174 204 251 268 283 299 306 308 312 309 308 313 314 317 319 319 320 318 315 314 312 310 309
19 224 101 307 282 222 258 263 256 242 248 242 251 266 281 291 124 124 138 150 179 260 274 257 266 285 291 298 296 309 304 304 304 305 307 310 312 312 311 311 310 308 307 304
132 129 78 270 327 47 303 242 231 231 214 207 224 246 127 228 154 154 154 215 283 292 269 284 295 296 299 292 296 311 304 300 300 298 299 300 305 307 307 306 304 302 301 300
142 120 118 218 35 284 249 288 202 216 245 188 200 229 231 235 152 146 170 267 198 302 308 307 306 301 292 297 300 303 301 298 298 302 305 308 307 304 303 301 299 298 295 292
181 163 161 163 199 304 294 240 195 170 267 192 194 232 222 191 174 237 195 303 300 297 299 292 290 293 297 303 307 307 308 310 311 312 312 310 305 300 298 296 296 295 294 292
161 209 196 112 182 214 243 251 140 104 279 221 206 221 187 170 187 244 287 314 308 297 275 280 287 294 302 308 312 314 315 316 316 315 313 311 310 309 307 306 304 302 298 294
111 40 218 218 224 278 242 204 160 105 269 164 196 213 186 186 222 283 301 301 296 281 268 279 292 301 308 312 313 316 317 319 319 317 315 315 314 313 311 310 309 307 305 301
159 164 196 112 217 265 182 127 159 210 180 211 203 194 218 265 280 295 293 280 279 268 277 286 296 306 311 312 315 317 318 319 318 316 316 317 317 316 315 316 315 314 311 308
207 192 180 182 205 220 181 214 232 216 211 223 226 269 271 268 283 294 286 276 265 274 284 293 302 306 310 314 317 318 319 319 317 318 319 320 321 324 323 319 317 315 313 307
277 156 195 95 227 222 222 237 251 252 262 272 269 273 280 277 287 288 279 270 272 280 291 299 303 307 312 317 318 319 319 318 318 320 323 328 327 322 321 321 319 314 311 304
209 150 191 259 266 263 265 260 264 270 274 278 283 279 272 280 278 272 270 275 278 288 296 299 302 308 314 316 317 320 319 321 323 326 331 327 324 326 325 324 322 315 310 302
204 225 217 230 239 222 245 264 270 271 273 276 265 257 271 281 281 277 274 277 283 288 289 294 303 310 315 316 316 319 321 325 329 332 330 326 329 330 328 326 325 326 311 303